Regional Weather Roundup
Issued by NWS Midland/Odessa, TX

Home | Current Version | Previous Version | Text Only | Print | Product List | Glossary On
Versions: 1 2 3 4 5 6 7 8 9 10 11 12 13 14 15 16 17 18 19 20 21 22 23 24 25 26 27 28 29 30 31 32 33 34 35 36 37 38 39 40 41 42 43 44 45 46 47 48 49 50
000
ASUS44 KMAF 201510
RWRMAF
MIDLAND AREA WEATHER ROUNDUP
NATIONAL WEATHER SERVICE MIDLAND TX
1000 AM CDT WED SEP 20 2017

...IN SOUTHWEST TEXAS AND SOUTHEAST NEW MEXICO...

CITY           SKY/WX    TMP DP  RH WIND       PRES   REMARKS
ALPINE         SUNNY     80  55  40 W9        30.14R
ANDREWS        FAIR      82  56  41 SW9       29.96R
ARTESIA        SUNNY     81  46  30 W12       29.97S
BIG SPRING     PTSUNNY   80  63  56 S14       29.96R
CARLSBAD       SUNNY     84  51  31 SW14      29.94S
DRYDEN           N/A     77  66  68 E5        29.95R
FORT STOCKTON  SUNNY     84  58  40 SW13      29.98R
GUAD PASS      SUNNY     73  46  38 W26G35    30.10S
HOBBS          SUNNY     79  52  38 SW6       29.98R
MARFA          NOT AVBL
MIDLAND AIRPK  SUNNY     83  60  45 SW9       29.95R
MIDLAND INTL   SUNNY     82  60  47 SW12      29.94R
ODESSA         SUNNY     81  60  48 SW12      29.96R
PECOS          SUNNY     86  52  30 W13       29.95R
PRESIDIO       FAIR      81  60  48 SE3       30.02R
SEMINOLE       SUNNY     78  57  48 W7        29.98R
SNYDER         SUNNY     78  65  64 S12       29.93R
WINK           SUNNY     80  56  43 CALM      29.94R
$$
...OTHER STATIONS IN TEXAS...

CITY           SKY/WX    TMP DP  RH WIND       PRES   REMARKS
ABILENE        SUNNY     79  71  76 S16G25    29.89R
AMARILLO       SUNNY     62  38  40 N16       29.97R
AUSTIN         MOSUNNY   85  74  69 S18       29.94R
BROWNSVILLE    PTSUNNY   87  78  74 S18       29.92R HX 100
CORPUS CHRISTI PTSUNNY   87  75  67 S17       29.92R
DALLAS FTW     PTSUNNY   84  72  67 S21       29.89R
DEL RIO        MOSUNNY   79  72  79 SE12      29.90R
EL PASO        MOSUNNY   80  55  42 W15       30.05R
HOUSTON INT    MOSUNNY   84  75  74 S9        29.96R
LUBBOCK        MOSUNNY   77  55  46 W13       29.94R
SAN ANGELO     SUNNY     82  69  64 S13       29.92R
SAN ANTONIO    PTSUNNY   82  72  71 S12       29.95R
WACO           PTSUNNY   84  74  71 S17G23    29.92S
WICHITA FALLS  NOT AVBL
$$
...OTHER LOCATIONS IN NEW MEXICO...

CITY           SKY/WX    TMP DP  RH WIND       PRES   REMARKS
ALAMOGORDO     SUNNY     75  45  33 S7        30.06R
ALBUQUERQUE    MOSUNNY   67  37  33 S5        30.10R
CANNON AFB     SUNNY     67  40  37 N7        30.02R
CLOVIS         SUNNY     63  40  42 N12       30.01R
HOLLOMAN AFB   NOT AVBL
ROSWELL        SUNNY     73  46  38 S6        29.98R
RUIDOSO        SUNNY     66  41  39 W10       30.19S
SANTA FE       SUNNY     63  34  33 S3        30.13R
TRUTH OR CONSE SUNNY     73  37  27 W8        30.07R
TUCUMCARI      SUNNY     64  35  34 NE8       30.01R
$$



USA.gov is the U.S. government's official web portal to all federal, state and local government web resources and services.